Theta_e
324 322 321 322 321 321 319 318 319 320 320 319 319 320 321 321 320 322 322 322 322 322
321 321 319 319 319 316 317 315 315 315 311 315 314 314 315 314 316 316 317 318 317 316
318 317 317 315 314 313 313 313 312 312 312 309 310 310 312 311 312 312 312 312 312 312
314 314 314 313 312 312 311 311 310 310 310 310 310 310 310 309 310 310 311 311 310 310
312 312 312 311 311 311 310 310 309 310 310 310 310 311 310 309 309 308 308 309 309 309
310 310 310 310 310 310 309 309 309 309 309 308 309 309 310 309 308 308 309 309 309 310
308 308 308 308 309 308 308 308 309 309 309 309 310 310 310 310 310 310 310 311 311 311
307 307 307 307 307 307 308 308 309 309 310 311 311 309 309 310 310 311 311 312 312 312
304 305 305 306 306 307 308 308 309 310 309 310 310 301 301 304 310 311 311 310 312 313
302 303 304 304 305 306 307 309 310 310 310 311 312 300 299 301 309 310 310 311 311 312
301 303 303 304 305 306 308 309 310 310 310 309 308 300 298 299 311 310 311 312 313 313
301 301 302 302 303 306 308 308 309 310 307 306 307 298 296 298 305 309 310 312 313 312
298 300 301 301 303 306 306 306 307 306 306 303 303 297 295 295 300 302 304 307 311 306
299 299 301 302 304 304 304 306 304 305 304 302 300 299 294 294 298 298 301 304 309 314
Wind_Speed
12 8 8 8 6 6 6 7 8 8 7 7 8 7 7 5 5 6 5 6 5 3
11 10 10 10 9 7 7 6 7 7 7 7 7 7 7 6 6 7 5 4 4 4
11 11 10 9 9 8 7 7 7 8 7 6 7 8 7 6 6 6 5 5 5 5
11 10 10 9 8 8 7 8 7 7 7 7 7 8 8 8 6 6 5 5 6 7
10 9 9 8 8 7 7 7 7 7 8 8 8 8 8 8 7 8 7 8 9 10
9 9 8 8 7 8 9 8 7 8 9 9 9 9 8 8 8 9 9 9 10 11
8 7 7 7 8 7 6 7 8 9 8 9 9 8 7 8 9 9 9 10 10 11
5 6 6 6 6 6 7 8 8 8 8 8 8 6 10 10 10 10 11 11 10 10
6 5 6 7 7 7 8 8 8 8 8 9 6 8 9 10 10 11 12 12 12 13
4 5 6 7 6 7 7 7 7 8 8 9 8 9 12 13 11 11 11 12 12 12
6 5 7 6 7 7 6 6 7 8 9 9 7 11 13 17 10 10 11 11 12 14
7 7 7 7 7 6 6 6 8 8 8 8 8 10 14 15 9 9 11 10 12 12
6 7 7 7 7 6 6 6 7 8 7 7 9 10 16 15 7 8 8 10 11 10
6 6 6 7 6 6 6 6 7 8 7 9 9 12 18 17 9 9 9 7 9 10
Wind_Direction
84 86 85 80 85 71 59 50 36 34 37 30 22 20 6 9 16 20 20 8 17 338
87 89 91 81 74 69 56 59 40 31 12 20 17 19 355 12 2 359 352 351 349 331
88 86 88 84 75 66 51 39 30 23 12 5 2 13 356 2 360 341 335 322 332 326
77 76 73 68 59 50 42 32 25 19 2 0 5 10 3 358 338 325 324 319 324 309
71 68 63 58 48 33 29 22 15 4 358 351 349 349 339 327 320 315 321 316 307 304
56 51 45 35 20 16 13 4 356 358 347 341 339 333 327 312 310 306 300 296 297 301
50 40 29 12 8 0 352 345 357 353 340 334 332 325 322 320 315 305 299 299 299 297
31 20 11 4 351 354 349 354 351 346 345 343 333 347 337 325 312 306 306 304 300 294
2 354 2 357 352 351 353 351 347 345 341 335 330 351 317 309 311 307 309 311 311 306
354 352 1 359 352 358 350 340 345 340 338 338 340 346 321 315 309 304 309 310 306 302
352 357 7 1 6 351 344 346 351 348 347 343 351 351 349 336 311 317 315 310 307 303
356 354 352 2 357 343 342 355 360 357 353 353 2 17 357 348 335 329 326 319 308 314
342 340 347 353 341 339 346 357 353 358 4 12 359 6 3 2 339 331 326 321 326 303
342 335 348 334 338 348 358 358 5 4 7 6 4 4 0 353 359 349 330 332 337 345